Regional Weather Roundup
Issued by NWS Sterling, VA

Home | Current Version | Previous Version | Text Only | Print | Product List | Glossary Off
Versions: 1 2 3 4 5 6 7 8 9 10 11 12 13 14 15 16 17 18 19 20 21 22 23 24 25 26 27 28

000
ASUS41 KLWX 221911
RWRLWX

REGIONAL WEATHER ROUNDUP
NATIONAL WEATHER SERVICE BALTIMORE MD/WASHINGTON DC
300 PM EDT SAT APR 22 2017

Note: "FAIR" indicates few or no clouds below 12,000 feet
with no significant weather and/or obstructions to visibility.
 TC=TEMPERATURE CELSIUS

 * =Non NWS site. Station does not report precipitation (e.g. rain,
    snow, etc.), thunder, or fog.

DCZ001-MDZ009-015-VAZ040>042-051-053>054-222000-
WASHINGTON METRO

CITY           SKY/WX    TMP DP  RH WIND       PRES   REMARKS
WASHINGTON NAT LGT RAIN  56  54  93 NE12      29.96S
DULLES         LGT RAIN  53  50  89 N10       29.97F FOG
ANDREWS AFB    LGT RAIN  54  52  94 N12       29.95R
FT BELVOIR     HVY RAIN  55  53  91 NW8       29.95S FOG
QUANTICO       LGT RAIN  56  56 100 N12       29.96S
COLLEGE PARK*  CLOUDY    54  52  92 CALM      29.96S
LEESBURG*      RAIN      52  52 100 N10       29.99S
MANASSAS*      LGT RAIN  53  51  93 N9        29.97F

$$

MDZ006>007-011-014-222000-
BALTIMORE METRO

CITY           SKY/WX    TMP DP  RH WIND       PRES   REMARKS
BWI AIRPORT    CLOUDY    55  54  96 VRB5      29.95F
MD SCIENCE CTR   N/A     57  49  74 MISG      29.96S
MARTIN STATE   DRIZZLE   55  55 100 N7        29.97F FOG
ANNAPOLIS      LGT RAIN  56  54  93 N10       29.96R FOG
FORT MEADE*    CLOUDY    54  52  94 CALM      29.99R

$$

MDZ012-015-019>023-222000-
MARYLAND EASTERN SHORE

CITY           SKY/WX    TMP DP  RH WIND       PRES   REMARKS
OCEAN CITY     CLOUDY    52  50  93 NE13      29.93R FOG
SALISBURY      LGT RAIN  54  54 100 NE8       29.92S FOG
BAY BRIDGE AP* CLOUDY    55  52  88 NE7       29.95F FOG
CAMBRIDGE*     PTSUNNY   55  54  94 VRB7      29.93S FOG
EASTON*        CLOUDY    57  54  88 NE9       29.98R

$$

MDZ017>025-222000-
SOUTHERN MARYLAND

CITY           SKY/WX    TMP DP  RH WIND       PRES   REMARKS
PATUXENT RIVER LGT RAIN  57  57 100 NE12      29.92S FOG
ST INIGOES     CLOUDY    58  56  93 N8        29.91S
LEONARDTOWN*   CLOUDY    55  54  94 NE7       29.94S

$$

MDZ003>005-222000-
NORTH CENTRAL MARYLAND

CITY           SKY/WX    TMP DP  RH WIND       PRES   REMARKS
FREDERICK*     RAIN      54  54 100 NW6       30.01R
HAGERSTOWN APT LGT RAIN  51  47  86 NW8       30.00R
WESTMINSTER*   LGT RAIN  52  50  93 N5        29.97S

$$

MDZ501>502-222000-
WESTERN MARYLAND

CITY           SKY/WX    TMP DP  RH WIND       PRES   REMARKS
OAKLAND*       CLOUDY    37  37 100 N6        29.99F FOG
CUMBERLAND*    CLOUDY    52  46  82 CALM      30.05F

$$

VAZ025>031-222000-
SHENANDOAH VALLEY

CITY           SKY/WX    TMP DP  RH WIND       PRES   REMARKS
WINCHESTER*    RAIN      46  45  93 N7        29.99S
FRONT ROYAL*   CLOUDY    50  46  87 N5        29.98F
LURAY*         LGT RAIN  50  48  93 NE6       29.96F
NEW MARKET*    CLOUDY    51  49  92 NE6       29.96F
STAUNTON*      DRIZZLE   50  49  96 NE8       29.98R
WAYNESBORO*    CLOUDY    51  50  99 N6        29.96R

$$

WVZ021-048>050-054>055-222000-
EASTERN WEST VIRGINIA PANHANDLE

CITY           SKY/WX    TMP DP  RH WIND       PRES   REMARKS
MARTINSBURG    LGT RAIN  50  47  89 N6        30.00R FOG
PETERSBURG*    LGT RAIN  52  50  92 CALM      30.00S

$$

VAZ036>039-050-222000-
CENTRAL FOOTHILLS

CITY           SKY/WX    TMP DP  RH WIND       PRES   REMARKS
CHARLOTTESVILL RAIN      54  52  93 NE10      29.94S FOG
CULPEPER*      LGT RAIN  53  51  95 N9        29.97S
ORANGE*        RAIN      50  48  93 N10G17    29.96R
GORDONSVILLE*  CLOUDY    51  50  94 NE10      29.95R FOG
WARRENTON*     DRIZZLE   53  49  86 N8        29.95F

$$

VAZ055>057-222000-
NORTH AND CENTRAL PIEDMONT

CITY           SKY/WX    TMP DP  RH WIND       PRES   REMARKS
FREDERICKSBRG* CLOUDY    55  55 100 N8        29.94S
STAFFORD*      RAIN      54  54 100 N9G16     29.99S

$$

NCZ024-NYZ072-PAZ021-071-VAZ022-071-222000-
OTHER REGIONAL OBSERVATIONS

CITY           SKY/WX    TMP DP  RH WIND       PRES   REMARKS
NEW YORK CITY  LGT RAIN  54  50  86 CALM      29.95S
PHILADELPHIA   LGT RAIN  55  50  83 NW12      29.96R
PITTSBURGH     CLOUDY    51  37  58 N8        30.06R
ROANOKE        CLOUDY    64  62  93 NE9       29.91R THUNDER
RICHMOND       CLOUDY    62  59  90 NE13      29.88F
RALEIGH        PTSUNNY   86  59  39 SW18G26   29.81F

$$

ANZ530>537-222000-
MARINE OBSERVATIONS

STATION/POSITION TIME  TEMP    WIND        PRES
                       AIR SEA DIR/SP/G
                 (UTC) (F)     (DEG/KT/KT) (MB)
THOMAS PT LIGHT  1900   55 60   10/ 15/ 16   N/A
BALT KEY BRIDGE  1848   55      10/  8/ 10 1014.5S
COVE POINT       1848   55      40/ 15/ 19 1013.7F
LEWISETTA        1848   58 65   70/  8/ 10 1012.7F
SOLOMONS ISLAND  1842   57 62   30/  8/ 11   N/A
PINEY POINT      1848           30/  8/ 10   N/A

$$





USA.gov is the U.S. government's official web portal to all federal, state and local government web resources and services.